• In Moldova, Republic
  • List of Countries
  • For 7 days
  • Water Temperature
  • Satellite Maps
  • Weather Map
  • Weather Widgets
  • user-avatar
    Login

    Hourly Weather Nakhchivan

    Today, 16 January, Monday

    Time Temperature Precipitation Wind Pressure Humidity
    00:00 -5°C° 0 mm 0 mps 686 mmHg 74%
    01:00 -5°C° 0 mm 0 mps 686 mmHg 75%
    02:00 -6°C° 0 mm 0 mps 686 mmHg 75%
    03:00 -7°C° 0 mm 0 mps 686 mmHg 75%
    04:00 -7°C° 0 mm 1 mps 686 mmHg 76%
    05:00 -7°C° 0 mm 1 mps 687 mmHg 77%
    06:00 -7°C° 0 mm 1 mps 687 mmHg 78%
    07:00 -4°C° 0 mm 1 mps 688 mmHg 77%
    08:00 -3°C° 0 mm 1 mps 688 mmHg 76%
    09:00 0°C° 0 mm 1 mps 689 mmHg 72%
    10:00 +1°C° 0 mm 1 mps 689 mmHg 71%
    11:00 +2°C° 0 mm 1 mps 689 mmHg 70%
    12:00 +4°C° 0 mm 1 mps 689 mmHg 70%
    13:00 +3°C° 0 mm 1 mps 689 mmHg 73%
    14:00 +3°C° 0 mm 1 mps 688 mmHg 76%
    15:00 +3°C° 0 mm 1 mps 688 mmHg 78%
    16:00 +1°C° 0 mm 1 mps 688 mmHg 81%
    17:00 -2°C° 0 mm 1 mps 688 mmHg 84%
    18:00 -4°C° 0 mm 1 mps 688 mmHg 86%
    19:00 -4°C° 0 mm 1 mps 688 mmHg 85%
    20:00 -6°C° 0 mm 1 mps 688 mmHg 84%
    21:00 -6°C° 0 mm 1 mps 688 mmHg 82%
    22:00 -6°C° 0 mm 1 mps 688 mmHg 81%
    23:00 -4°C° 0 mm 1 mps 688 mmHg 80%

    Tomorrow, 17 January, Tuesday

    Time Temperature Precipitation Wind Pressure Humidity
    00:00 -4°C° 0 mm 1 mps 688 mmHg 79%
    01:00 -4°C° 0 mm 1 mps 688 mmHg 78%
    02:00 -4°C° 0 mm 1 mps 688 mmHg 76%
    03:00 -4°C° 0 mm 1 mps 688 mmHg 75%
    04:00 -4°C° 0 mm 1 mps 688 mmHg 75%
    05:00 -4°C° 0 mm 1 mps 688 mmHg 75%
    06:00 -4°C° 0 mm 1 mps 688 mmHg 74%
    07:00 -3°C° 0 mm 1 mps 689 mmHg 73%
    08:00 -1°C° 0 mm 1 mps 689 mmHg 72%
    09:00 0°C° 0 mm 1 mps 690 mmHg 71%
    10:00 +2°C° 0 mm 1 mps 690 mmHg 71%
    11:00 +4°C° 0 mm 1 mps 690 mmHg 72%
    12:00 +5°C° 0 mm 1 mps 690 mmHg 72%
    13:00 +5°C° 0 mm 1 mps 689 mmHg 74%
    14:00 +5°C° 0 mm 1 mps 689 mmHg 77%
    15:00 +3°C° 0 mm 0 mps 689 mmHg 80%
    16:00 +1°C° 0 mm 0 mps 688 mmHg 81%
    17:00 -1°C° 0 mm 0 mps 688 mmHg 82%
    18:00 -3°C° 0 mm 1 mps 688 mmHg 84%
    19:00 -3°C° 0 mm 1 mps 688 mmHg 82%
    20:00 -3°C° 0 mm 1 mps 688 mmHg 81%
    21:00 -3°C° 0 mm 1 mps 688 mmHg 80%
    22:00 -3°C° 0 mm 1 mps 688 mmHg 79%
    23:00 -3°C° 0 mm 1 mps 687 mmHg 78%

    Day after tomorrow, 18 January, Wednesday

    Time Temperature Precipitation Wind Pressure Humidity
    00:00 -3°C° 0 mm 1 mps 687 mmHg 77%
    01:00 -3°C° 0 mm 1 mps 687 mmHg 77%
    02:00 -3°C° 0 mm 1 mps 687 mmHg 76%
    03:00 -3°C° 0 mm 1 mps 687 mmHg 76%
    04:00 -3°C° 0 mm 1 mps 687 mmHg 75%
    05:00 -3°C° 0 mm 1 mps 687 mmHg 75%
    06:00 -3°C° 0 mm 1 mps 687 mmHg 75%
    07:00 -1°C° 0 mm 1 mps 688 mmHg 72%
    08:00 0°C° 0 mm 1 mps 688 mmHg 70%
    09:00 +1°C° 0 mm 1 mps 688 mmHg 68%
    10:00 +3°C° 0 mm 1 mps 688 mmHg 69%
    11:00 +4°C° 0 mm 1 mps 688 mmHg 70%
    12:00 +5°C° 0 mm 0 mps 688 mmHg 70%
    13:00 +4°C° 0 mm 0 mps 688 mmHg 72%
    14:00 +4°C° 0 mm 0 mps 688 mmHg 73%
    15:00 +4°C° 0 mm 0 mps 688 mmHg 75%
    16:00 +2°C° 0 mm 0 mps 687 mmHg 76%
    17:00 0°C° 0 mm 0 mps 687 mmHg 77%
    18:00 -2°C° 0 mm 0 mps 687 mmHg 79%
    19:00 -2°C° 0 mm 0 mps 687 mmHg 78%
    20:00 -3°C° 0 mm 0 mps 687 mmHg 77%
    21:00 -3°C° 0 mm 0 mps 687 mmHg 76%
    22:00 -3°C° 0 mm 0 mps 687 mmHg 75%
    23:00 -3°C° 0 mm 0 mps 688 mmHg 73%

    19 January, Thursday

    Time Temperature Precipitation Wind Pressure Humidity
    00:00 -3°C° 0 mm 0 mps 688 mmHg 72%
    01:00 -3°C° 0 mm 1 mps 688 mmHg 72%
    02:00 -3°C° 0 mm 1 mps 688 mmHg 71%
    03:00 -3°C° 0 mm 1 mps 688 mmHg 71%
    04:00 -3°C° 0 mm 1 mps 688 mmHg 71%
    05:00 -3°C° 0 mm 1 mps 688 mmHg 70%
    06:00 -3°C° 0 mm 1 mps 688 mmHg 70%
    07:00 -2°C° 0 mm 1 mps 688 mmHg 69%
    08:00 -1°C° 0 mm 1 mps 689 mmHg 68%
    09:00 +1°C° 0 mm 1 mps 689 mmHg 67%
    10:00 +2°C° 0 mm 1 mps 689 mmHg 67%
    11:00 +4°C° 0 mm 1 mps 689 mmHg 66%
    12:00 +5°C° 0 mm 1 mps 689 mmHg 66%
    13:00 +5°C° 0 mm 1 mps 689 mmHg 68%
    14:00 +4°C° 0 mm 0 mps 689 mmHg 70%
    15:00 +3°C° 0 mm 0 mps 688 mmHg 72%
    16:00 +1°C° 0 mm 0 mps 688 mmHg 74%
    17:00 -1°C° 0 mm 0 mps 688 mmHg 76%
    18:00 -3°C° 0 mm 0 mps 688 mmHg 78%
    19:00 -3°C° 0 mm 0 mps 688 mmHg 78%
    20:00 -3°C° 0 mm 0 mps 688 mmHg 77%
    21:00 -3°C° 0 mm 0 mps 688 mmHg 77%
    22:00 -4°C° 0 mm 0 mps 688 mmHg 76%
    23:00 -4°C° 0 mm 0 mps 688 mmHg 76%

    20 January, Friday

    Time Temperature Precipitation Wind Pressure Humidity
    00:00 -4°C° 0 mm 0 mps 688 mmHg 76%
    01:00 -4°C° 0 mm 0 mps 688 mmHg 76%
    02:00 -4°C° 0 mm 0 mps 688 mmHg 76%
    03:00 -4°C° 0 mm 0 mps 688 mmHg 76%
    04:00 -5°C° 0 mm 0 mps 689 mmHg 76%
    05:00 -5°C° 0 mm 0 mps 689 mmHg 76%
    06:00 -5°C° 0 mm 0 mps 689 mmHg 76%
    07:00 -4°C° 0 mm 0 mps 690 mmHg 75%
    08:00 -1°C° 0 mm 1 mps 690 mmHg 73%
    09:00 0°C° 0 mm 1 mps 691 mmHg 72%
    10:00 +1°C° 0 mm 1 mps 691 mmHg 69%
    11:00 +3°C° 0 mm 1 mps 691 mmHg 67%
    12:00 +3°C° 0 mm 0 mps 691 mmHg 64%
    13:00 +4°C° 0 mm 1 mps 691 mmHg 66%
    14:00 +4°C° 0 mm 1 mps 690 mmHg 69%
    15:00 +4°C° 0 mm 1 mps 690 mmHg 71%
    16:00 +2°C° 0 mm 1 mps 690 mmHg 74%
    17:00 0°C° 0 mm 1 mps 690 mmHg 77%
    18:00 -2°C° 0 mm 0 mps 689 mmHg 80%
    19:00 -3°C° 0 mm 0 mps 690 mmHg 79%
    20:00 -3°C° 0 mm 0 mps 690 mmHg 79%
    21:00 -3°C° 0 mm 0 mps 690 mmHg 79%
    22:00 -3°C° 0 mm 0 mps 690 mmHg 79%
    23:00 -3°C° 0 mm 0 mps 690 mmHg 79%

    21 January, Saturday

    Time Temperature Precipitation Wind Pressure Humidity
    00:00 -3°C° 0 mm 0 mps 690 mmHg 79%
    01:00 -4°C° 0 mm 0 mps 690 mmHg 79%
    02:00 -4°C° 0 mm 0 mps 690 mmHg 80%
    03:00 -4°C° 0 mm 0 mps 690 mmHg 80%
    04:00 -4°C° 0 mm 0 mps 690 mmHg 81%
    05:00 -4°C° 0 mm 0 mps 689 mmHg 81%
    06:00 -4°C° 0 mm 0 mps 689 mmHg 82%
    07:00 -3°C° 0 mm 0 mps 690 mmHg 80%
    08:00 -2°C° 0 mm 0 mps 690 mmHg 79%
    09:00 -1°C° 0 mm 0 mps 691 mmHg 77%
    10:00 0°C° 0 mm 0 mps 691 mmHg 74%
    11:00 +2°C° 0 mm 1 mps 690 mmHg 71%
    12:00 +3°C° 0 mm 1 mps 690 mmHg 67%
    13:00 +3°C° 0 mm 1 mps 690 mmHg 69%
    14:00 +3°C° 0 mm 1 mps 690 mmHg 70%
    15:00 +3°C° 0 mm 1 mps 689 mmHg 72%
    16:00 +1°C° 0 mm 1 mps 689 mmHg 76%
    17:00 -2°C° 0 mm 0 mps 689 mmHg 81%
    18:00 -4°C° 0 mm 0 mps 689 mmHg 85%
    19:00 -4°C° 0 mm 0 mps 689 mmHg 85%
    20:00 -4°C° 0 mm 0 mps 689 mmHg 84%
    21:00 -4°C° 0 mm 0 mps 689 mmHg 84%
    22:00 -4°C° 0 mm 0 mps 690 mmHg 84%
    23:00 -4°C° 0 mm 0 mps 690 mmHg 84%
    Show more